Time,TemperatureF,DewpointF,PressureIn,WindDirection,WindDirectionDegrees,WindSpeedMPH,WindSpeedGustMPH,Humidity,HourlyPrecipIn,Conditions,Clouds,dailyrainin,SoftwareType,DateUTC
2013-05-14 00:01:00,76.7,63.1,30.08,North,0,2.9,4.3,63,0.00,,,0.00,WUHU216HW,2013-05-14 04:01:00,
2013-05-14 00:02:00,76.7,62.6,30.08,NE,45,1.1,4.3,62,0.00,,,0.00,WUHU216HW,2013-05-14 04:02:00,
2013-05-14 00:07:00,76.3,61.9,30.07,NNE,23,4.0,4.3,61,0.00,,,0.00,WUHU216HW,2013-05-14 04:07:00,
2013-05-14 00:12:00,76.0,61.6,30.08,NW,315,4.0,5.4,61,0.00,,,0.00,WUHU216HW,2013-05-14 04:12:00,
2013-05-14 00:18:00,76.0,61.6,30.08,North,0,3.1,5.4,61,0.00,,,0.00,WUHU216HW,2013-05-14 04:18:00,
2013-05-14 00:23:00,76.0,61.6,30.08,NW,315,2.0,4.0,61,0.00,,,0.00,WUHU216HW,2013-05-14 04:23:00,
2013-05-14 00:28:00,76.0,62.0,30.08,North,0,3.1,3.4,62,0.00,,,0.00,WUHU216HW,2013-05-14 04:28:00,
2013-05-14 00:33:00,75.6,60.9,30.09,ENE,68,3.8,6.0,60,0.00,,,0.00,WUHU216HW,2013-05-14 04:33:00,
2013-05-14 00:38:00,75.1,58.8,30.09,NE,45,5.4,6.3,57,0.00,,,0.00,WUHU216HW,2013-05-14 04:38:00,
2013-05-14 00:43:00,74.5,57.8,30.09,NNW,338,2.7,9.4,56,0.00,,,0.00,WUHU216HW,2013-05-14 04:43:00,
2013-05-14 00:48:00,74.2,56.9,30.09,North,0,3.8,11.4,55,0.00,,,0.00,WUHU216HW,2013-05-14 04:48:00,
2013-05-14 00:53:00,74.0,57.3,30.09,NW,315,6.3,11.4,56,0.00,,,0.00,WUHU216HW,2013-05-14 04:53:00,
2013-05-14 00:58:00,73.8,55.5,30.09,NNE,23,5.4,9.6,53,0.00,,,0.00,WUHU216HW,2013-05-14 04:58:00,
2013-05-14 01:04:00,73.4,55.6,30.09,NNW,338,5.6,7.4,54,0.00,,,0.00,WUHU216HW,2013-05-14 05:04:00,
2013-05-14 01:09:00,73.1,55.4,30.09,North,0,6.5,6.9,54,0.00,,,0.00,WUHU216HW,2013-05-14 05:09:00,
2013-05-14 01:14:00,72.9,54.6,30.09,NE,45,5.8,11.4,53,0.00,,,0.00,WUHU216HW,2013-05-14 05:14:00,
2013-05-14 01:19:00,72.7,55.5,30.08,North,0,4.9,11.4,55,0.00,,,0.00,WUHU216HW,2013-05-14 05:19:00,
2013-05-14 01:24:00,72.7,56.0,30.08,NNE,23,3.4,5.6,56,0.00,,,0.00,WUHU216HW,2013-05-14 05:24:00,
2013-05-14 01:29:00,72.5,55.9,30.08,NNW,338,4.7,5.6,56,0.00,,,0.00,WUHU216HW,2013-05-14 05:29:00,
2013-05-14 01:34:00,72.7,56.5,30.08,North,0,4.7,5.1,57,0.00,,,0.00,WUHU216HW,2013-05-14 05:34:00,
2013-05-14 01:39:00,72.5,55.9,30.08,ENE,68,2.2,4.7,56,0.00,,,0.00,WUHU216HW,2013-05-14 05:39:00,
2013-05-14 01:45:00,72.4,55.7,30.08,North,0,3.4,4.0,56,0.00,,,0.00,WUHU216HW,2013-05-14 05:45:00,
2013-05-14 01:50:00,72.2,56.1,30.08,North,0,4.7,6.0,57,0.00,,,0.00,WUHU216HW,2013-05-14 05:50:00,
2013-05-14 01:59:00,72.0,55.9,30.08,NNE,23,3.8,4.9,57,0.00,,,0.00,WUHU216HW,2013-05-14 05:59:00,
2013-05-14 02:04:00,71.6,55.5,30.07,NW,315,1.8,6.3,57,0.00,,,0.00,WUHU216HW,2013-05-14 06:04:00,
2013-05-14 02:09:00,71.5,55.9,30.07,NNW,338,2.5,6.3,58,0.00,,,0.00,WUHU216HW,2013-05-14 06:09:00,
2013-05-14 02:15:00,71.3,55.7,30.07,NNE,23,1.8,6.5,58,0.00,,,0.00,WUHU216HW,2013-05-14 06:15:00,
2013-05-14 02:21:00,71.3,55.7,30.07,NW,315,2.9,6.5,58,0.00,,,0.00,WUHU216HW,2013-05-14 06:21:00,
2013-05-14 02:26:00,71.3,55.7,30.07,NW,315,2.9,2.9,58,0.00,,,0.00,WUHU216HW,2013-05-14 06:26:00,
2013-05-14 02:32:00,71.3,56.3,30.07,NE,45,3.6,3.6,59,0.00,,,0.00,WUHU216HW,2013-05-14 06:32:00,
2013-05-14 02:37:00,71.1,56.1,30.07,NNE,23,1.8,3.6,59,0.00,,,0.00,WUHU216HW,2013-05-14 06:37:00,
2013-05-14 02:42:00,70.9,56.4,30.07,NNW,338,2.7,3.8,60,0.00,,,0.00,WUHU216HW,2013-05-14 06:42:00,
2013-05-14 02:47:00,70.9,55.9,30.07,NNE,23,2.9,3.8,59,0.00,,,0.00,WUHU216HW,2013-05-14 06:47:00,
2013-05-14 02:52:00,70.6,55.6,30.07,NNE,23,1.8,4.5,59,0.00,,,0.00,WUHU216HW,2013-05-14 06:52:00,
2013-05-14 02:57:00,70.4,55.9,30.07,NNW,338,4.0,4.5,60,0.00,,,0.00,WUHU216HW,2013-05-14 06:57:00,
2013-05-14 03:02:00,70.2,55.8,30.07,North,0,2.7,6.3,60,0.00,,,0.00,WUHU216HW,2013-05-14 07:02:00,
2013-05-14 03:07:00,70.0,55.6,30.07,North,0,2.5,6.3,60,0.00,,,0.00,WUHU216HW,2013-05-14 07:07:00,
2013-05-14 03:12:00,69.8,55.9,30.07,North,0,4.0,5.4,61,0.00,,,0.00,WUHU216HW,2013-05-14 07:12:00,
2013-05-14 03:17:00,69.7,56.1,30.07,NNE,23,4.3,5.1,62,0.00,,,0.00,WUHU216HW,2013-05-14 07:17:00,
2013-05-14 03:22:00,69.5,56.4,30.07,NE,45,1.8,5.1,63,0.00,,,0.00,WUHU216HW,2013-05-14 07:22:00,
2013-05-14 03:28:00,69.5,56.4,30.07,NNE,23,1.8,4.0,63,0.00,,,0.00,WUHU216HW,2013-05-14 07:28:00,
2013-05-14 03:33:00,69.5,56.4,30.07,NE,45,3.6,4.0,63,0.00,,,0.00,WUHU216HW,2013-05-14 07:33:00,
2013-05-14 03:38:00,69.5,56.8,30.07,NE,45,1.3,4.0,64,0.00,,,0.00,WUHU216HW,2013-05-14 07:38:00,
2013-05-14 03:43:00,69.3,57.0,30.07,NNE,23,2.5,4.3,65,0.00,,,0.00,WUHU216HW,2013-05-14 07:43:00,
2013-05-14 03:48:00,69.1,56.8,30.07,NE,45,3.1,4.3,65,0.00,,,0.00,WUHU216HW,2013-05-14 07:48:00,
2013-05-14 03:53:00,69.1,56.8,30.07,North,0,2.0,3.8,65,0.00,,,0.00,WUHU216HW,2013-05-14 07:53:00,
2013-05-14 03:58:00,68.9,57.1,30.07,NNW,338,4.0,4.7,66,0.00,,,0.00,WUHU216HW,2013-05-14 07:58:00,
2013-05-14 04:03:00,68.8,56.9,30.07,NNE,23,2.9,4.7,66,0.00,,,0.00,WUHU216HW,2013-05-14 08:03:00,
2013-05-14 04:08:00,68.8,57.3,30.07,NE,45,3.4,4.3,67,0.00,,,0.00,WUHU216HW,2013-05-14 08:08:00,
2013-05-14 04:13:00,68.8,57.8,30.07,NNE,23,4.7,4.7,68,0.00,,,0.00,WUHU216HW,2013-05-14 08:13:00,
2013-05-14 04:19:00,68.6,57.6,30.07,NNW,338,3.4,4.7,68,0.00,,,0.00,WUHU216HW,2013-05-14 08:19:00,
2013-05-14 04:24:00,68.6,57.6,30.07,ENE,68,2.0,4.9,68,0.00,,,0.00,WUHU216HW,2013-05-14 08:24:00,
2013-05-14 04:29:00,68.6,57.6,30.07,WNW,293,1.1,4.9,68,0.00,,,0.00,WUHU216HW,2013-05-14 08:29:00,
2013-05-14 04:34:00,68.6,58.1,30.07,North,0,1.1,4.0,69,0.00,,,0.00,WUHU216HW,2013-05-14 08:34:00,
2013-05-14 04:39:00,68.6,58.1,30.07,NE,45,2.5,3.4,69,0.00,,,0.00,WUHU216HW,2013-05-14 08:39:00,
2013-05-14 04:44:00,68.6,58.1,30.07,NE,45,4.0,4.5,69,0.00,,,0.00,WUHU216HW,2013-05-14 08:44:00,
2013-05-14 04:49:00,68.4,58.3,30.08,ENE,68,2.9,4.9,70,0.00,,,0.00,WUHU216HW,2013-05-14 08:49:00,
2013-05-14 04:54:00,68.2,58.2,30.08,NE,45,3.4,4.9,70,0.00,,,0.00,WUHU216HW,2013-05-14 08:54:00,
2013-05-14 05:00:00,68.2,58.2,30.08,NE,45,3.6,4.3,70,0.00,,,0.00,WUHU216HW,2013-05-14 09:00:00,
2013-05-14 05:05:00,68.0,58.0,30.08,East,90,2.0,4.0,70,0.00,,,0.00,WUHU216HW,2013-05-14 09:05:00,
2013-05-14 05:10:00,68.0,58.0,30.08,ENE,68,4.9,4.9,70,0.00,,,0.00,WUHU216HW,2013-05-14 09:10:00,
2013-05-14 05:15:00,67.9,57.8,30.08,NNE,23,3.1,4.9,70,0.00,,,0.00,WUHU216HW,2013-05-14 09:15:00,
2013-05-14 05:20:00,67.9,57.8,30.08,NE,45,2.0,4.7,70,0.00,,,0.00,WUHU216HW,2013-05-14 09:20:00,
2013-05-14 05:25:00,67.9,57.8,30.08,NNE,23,4.0,5.4,70,0.00,,,0.00,WUHU216HW,2013-05-14 09:25:00,
2013-05-14 05:30:00,67.7,57.6,30.08,NNE,23,4.7,5.4,70,0.00,,,0.00,WUHU216HW,2013-05-14 09:30:00,
2013-05-14 05:35:00,67.7,57.6,30.08,NNE,23,2.5,4.9,70,0.00,,,0.00,WUHU216HW,2013-05-14 09:35:00,
2013-05-14 05:41:00,67.7,57.6,30.08,NNE,23,4.3,4.7,70,0.00,,,0.00,WUHU216HW,2013-05-14 09:41:00,
2013-05-14 05:46:00,67.5,57.4,30.08,ENE,68,2.5,4.3,70,0.00,,,0.00,WUHU216HW,2013-05-14 09:46:00,
2013-05-14 05:51:00,67.5,57.4,30.08,ESE,113,2.2,3.6,70,0.00,,,0.00,WUHU216HW,2013-05-14 09:51:00,
2013-05-14 05:56:00,67.5,57.4,30.08,East,90,4.0,5.1,70,0.00,,,0.00,WUHU216HW,2013-05-14 09:56:00,
2013-05-14 06:01:00,67.3,57.2,30.08,NNE,23,2.9,5.1,70,0.00,,,0.00,WUHU216HW,2013-05-14 10:01:00,
2013-05-14 06:06:00,67.3,57.2,30.09,NNE,23,3.6,3.8,70,0.00,,,0.00,WUHU216HW,2013-05-14 10:06:00,
2013-05-14 06:11:00,67.3,57.2,30.08,NNW,338,4.0,4.0,70,0.00,,,0.00,WUHU216HW,2013-05-14 10:11:00,
2013-05-14 06:16:00,67.3,57.6,30.09,NE,45,2.0,4.0,71,0.00,,,0.00,WUHU216HW,2013-05-14 10:16:00,
2013-05-14 06:21:00,67.1,57.4,30.09,NE,45,3.4,4.0,71,0.00,,,0.00,WUHU216HW,2013-05-14 10:21:00,
2013-05-14 06:27:00,67.1,57.4,30.09,North,0,4.7,4.7,71,0.00,,,0.00,WUHU216HW,2013-05-14 10:27:00,
2013-05-14 06:32:00,67.0,57.2,30.10,NE,45,2.5,4.7,71,0.00,,,0.00,WUHU216HW,2013-05-14 10:32:00,
2013-05-14 06:37:00,67.0,57.2,30.10,NNW,338,2.5,5.4,71,0.00,,,0.00,WUHU216HW,2013-05-14 10:37:00,
2013-05-14 06:42:00,67.0,57.2,30.10,NE,45,2.2,5.4,71,0.00,,,0.00,WUHU216HW,2013-05-14 10:42:00,
2013-05-14 06:47:00,67.0,56.9,30.10,NE,45,3.4,3.4,70,0.00,,,0.00,WUHU216HW,2013-05-14 10:47:00,
2013-05-14 06:52:00,67.0,56.9,30.11,NNE,23,3.4,4.3,70,0.00,,,0.00,WUHU216HW,2013-05-14 10:52:00,
2013-05-14 06:57:00,67.1,57.1,30.10,North,0,3.4,4.3,70,0.00,,,0.00,WUHU216HW,2013-05-14 10:57:00,
2013-05-14 07:02:00,67.0,56.9,30.11,North,0,1.8,4.5,70,0.00,,,0.00,WUHU216HW,2013-05-14 11:02:00,
2013-05-14 07:07:00,67.0,56.9,30.11,NE,45,2.2,4.5,70,0.00,,,0.00,WUHU216HW,2013-05-14 11:07:00,
2013-05-14 07:12:00,67.0,56.9,30.11,ENE,68,1.6,6.0,70,0.00,,,0.00,WUHU216HW,2013-05-14 11:12:00,
2013-05-14 07:20:00,67.0,56.9,30.11,NNE,23,2.5,4.0,70,0.00,,,0.00,WUHU216HW,2013-05-14 11:20:00,
2013-05-14 07:25:00,67.0,56.9,30.12,East,90,5.4,5.4,70,0.00,,,0.00,WUHU216HW,2013-05-14 11:25:00,
2013-05-14 07:30:00,67.0,56.9,30.12,SSW,203,2.2,6.3,70,0.00,,,0.00,WUHU216HW,2013-05-14 11:30:00,
2013-05-14 07:35:00,67.0,56.9,30.12,North,0,3.8,6.3,70,0.00,,,0.00,WUHU216HW,2013-05-14 11:35:00,
2013-05-14 07:40:00,67.0,56.9,30.12,NNE,23,3.4,6.3,70,0.00,,,0.00,WUHU216HW,2013-05-14 11:40:00,
2013-05-14 07:45:00,67.1,57.1,30.12,NE,45,2.7,5.1,70,0.00,,,0.00,WUHU216HW,2013-05-14 11:45:00,
2013-05-14 07:50:00,67.3,57.2,30.12,North,0,2.9,5.1,70,0.00,,,0.00,WUHU216HW,2013-05-14 11:50:00,
2013-05-14 07:55:00,67.5,57.0,30.12,NNE,23,1.6,4.7,69,0.00,,,0.00,WUHU216HW,2013-05-14 11:55:00,
2013-05-14 08:01:00,67.7,56.7,30.12,NNE,23,4.5,4.7,68,0.00,,,0.00,WUHU216HW,2013-05-14 12:01:00,
2013-05-14 08:06:00,68.0,57.1,30.12,NE,45,3.6,4.7,68,0.00,,,0.00,WUHU216HW,2013-05-14 12:06:00,
2013-05-14 08:11:00,68.0,56.7,30.13,NNE,23,4.5,5.4,67,0.00,,,0.00,WUHU216HW,2013-05-14 12:11:00,
2013-05-14 08:16:00,68.4,56.6,30.12,NW,315,2.5,5.4,66,0.00,,,0.00,WUHU216HW,2013-05-14 12:16:00,
2013-05-14 08:21:00,68.6,56.4,30.13,North,0,2.0,4.7,65,0.00,,,0.00,WUHU216HW,2013-05-14 12:21:00,
2013-05-14 08:26:00,68.8,56.1,30.13,North,0,3.4,4.7,64,0.00,,,0.00,WUHU216HW,2013-05-14 12:26:00,
2013-05-14 08:31:00,68.9,55.4,30.13,North,0,6.7,6.7,62,0.00,,,0.00,WUHU216HW,2013-05-14 12:31:00,
2013-05-14 08:36:00,69.3,56.2,30.13,NNE,23,2.5,6.7,63,0.00,,,0.00,WUHU216HW,2013-05-14 12:36:00,
2013-05-14 08:41:00,69.5,55.5,30.13,NE,45,4.0,6.9,61,0.00,,,0.00,WUHU216HW,2013-05-14 12:41:00,
2013-05-14 08:46:00,69.8,55.4,30.13,North,0,5.1,6.9,60,0.00,,,0.00,WUHU216HW,2013-05-14 12:46:00,
2013-05-14 08:52:00,70.2,56.2,30.13,North,0,2.0,6.9,61,0.00,,,0.00,WUHU216HW,2013-05-14 12:52:00,
2013-05-14 08:57:00,70.6,56.1,30.13,NW,315,2.7,6.9,60,0.00,,,0.00,WUHU216HW,2013-05-14 12:57:00,
2013-05-14 09:02:00,70.9,55.9,30.13,NE,45,3.4,5.4,59,0.00,,,0.00,WUHU216HW,2013-05-14 13:02:00,
2013-05-14 09:07:00,71.3,56.3,30.13,North,0,5.4,5.4,59,0.00,,,0.00,WUHU216HW,2013-05-14 13:07:00,
2013-05-14 09:12:00,71.6,55.5,30.13,ENE,68,5.4,6.3,57,0.00,,,0.00,WUHU216HW,2013-05-14 13:12:00,
2013-05-14 09:17:00,71.6,56.1,30.13,ENE,68,5.1,6.3,58,0.00,,,0.00,WUHU216HW,2013-05-14 13:17:00,
2013-05-14 09:22:00,72.0,56.3,30.13,NNE,23,6.0,6.0,58,0.00,,,0.00,WUHU216HW,2013-05-14 13:22:00,
2013-05-14 09:27:00,72.4,56.7,30.13,North,0,2.0,8.3,58,0.00,,,0.00,WUHU216HW,2013-05-14 13:27:00,
2013-05-14 09:33:00,72.7,56.5,30.13,ENE,68,5.1,6.5,57,0.00,,,0.00,WUHU216HW,2013-05-14 13:33:00,
2013-05-14 09:38:00,73.1,56.9,30.13,NE,45,2.9,6.5,57,0.00,,,0.00,WUHU216HW,2013-05-14 13:38:00,
2013-05-14 09:43:00,73.4,57.7,30.13,NNW,338,5.6,5.6,58,0.00,,,0.00,WUHU216HW,2013-05-14 13:43:00,
2013-05-14 09:48:00,74.0,58.2,30.14,NNE,23,5.4,5.6,58,0.00,,,0.00,WUHU216HW,2013-05-14 13:48:00,
2013-05-14 09:53:00,74.2,57.9,30.14,NNE,23,2.5,6.3,57,0.00,,,0.00,WUHU216HW,2013-05-14 13:53:00,
2013-05-14 09:58:00,74.5,58.8,30.14,ESE,113,5.1,6.3,58,0.00,,,0.00,WUHU216HW,2013-05-14 13:58:00,
2013-05-14 10:03:00,74.7,58.0,30.14,ENE,68,1.8,8.1,56,0.00,,,0.00,WUHU216HW,2013-05-14 14:03:00,
2013-05-14 10:08:00,74.9,58.6,30.14,SSE,158,5.1,8.1,57,0.00,,,0.00,WUHU216HW,2013-05-14 14:08:00,
2013-05-14 10:14:00,75.2,59.0,30.14,NE,45,6.5,7.6,57,0.00,,,0.00,WUHU216HW,2013-05-14 14:14:00,
2013-05-14 10:19:00,75.4,59.1,30.14,ENE,68,3.6,10.1,57,0.00,,,0.00,WUHU216HW,2013-05-14 14:19:00,
2013-05-14 10:24:00,76.0,60.1,30.14,NNE,23,6.0,10.1,58,0.00,,,0.00,WUHU216HW,2013-05-14 14:24:00,
2013-05-14 10:29:00,76.3,59.9,30.14,ESE,113,1.1,6.0,57,0.00,,,0.00,WUHU216HW,2013-05-14 14:29:00,
2013-05-14 10:34:00,76.7,59.8,30.14,WSW,248,4.3,10.7,56,0.00,,,0.00,WUHU216HW,2013-05-14 14:34:00,
2013-05-14 10:39:00,76.9,60.0,30.15,ENE,68,5.4,10.7,56,0.00,,,0.00,WUHU216HW,2013-05-14 14:39:00,
2013-05-14 10:44:00,76.7,59.8,30.15,East,90,6.3,7.8,56,0.00,,,0.00,WUHU216HW,2013-05-14 14:44:00,
2013-05-14 10:49:00,77.0,60.1,30.15,East,90,5.4,7.6,56,0.00,,,0.00,WUHU216HW,2013-05-14 14:49:00,
2013-05-14 10:55:00,77.0,60.1,30.15,East,90,3.6,7.6,56,0.00,,,0.00,WUHU216HW,2013-05-14 14:55:00,
2013-05-14 11:00:00,77.4,60.0,30.15,SSE,158,0.9,6.3,55,0.00,,,0.00,WUHU216HW,2013-05-14 15:00:00,
2013-05-14 11:05:00,77.8,61.3,30.15,East,90,2.2,6.3,57,0.00,,,0.00,WUHU216HW,2013-05-14 15:05:00,
2013-05-14 11:10:00,78.5,62.0,30.15,South,180,4.0,6.3,57,0.00,,,0.00,WUHU216HW,2013-05-14 15:10:00,
2013-05-14 11:15:00,78.7,60.6,30.15,ENE,68,4.7,7.2,54,0.00,,,0.00,WUHU216HW,2013-05-14 15:15:00,
2013-05-14 11:20:00,78.7,60.6,30.15,ENE,68,4.7,7.2,54,0.00,,,0.00,WUHU216HW,2013-05-14 15:20:00,
2013-05-14 11:25:00,78.8,60.8,30.15,ESE,113,2.7,4.7,54,0.00,,,0.00,WUHU216HW,2013-05-14 15:25:00,
2013-05-14 11:30:00,79.0,62.0,30.15,East,90,4.3,4.7,56,0.00,,,0.00,WUHU216HW,2013-05-14 15:30:00,
2013-05-14 11:36:00,79.9,62.3,30.15,WNW,293,4.5,7.6,55,0.00,,,0.00,WUHU216HW,2013-05-14 15:36:00,
2013-05-14 11:41:00,79.9,61.7,30.15,ESE,113,4.9,7.6,54,0.00,,,0.00,WUHU216HW,2013-05-14 15:41:00,
2013-05-14 11:46:00,79.6,61.4,30.15,ENE,68,5.8,6.3,54,0.00,,,0.00,WUHU216HW,2013-05-14 15:46:00,
2013-05-14 11:51:00,79.9,62.8,30.15,ENE,68,1.8,6.3,56,0.00,,,0.00,WUHU216HW,2013-05-14 15:51:00,
2013-05-14 11:56:00,80.3,62.6,30.15,NNE,23,6.5,6.5,55,0.00,,,0.00,WUHU216HW,2013-05-14 15:56:00,
2013-05-14 12:01:00,80.6,62.4,30.15,NNE,23,2.0,6.5,54,0.00,,,0.00,WUHU216HW,2013-05-14 16:01:00,
2013-05-14 12:06:00,80.5,62.2,30.15,SE,135,4.3,4.7,54,0.00,,,0.00,WUHU216HW,2013-05-14 16:06:00,
2013-05-14 12:11:00,80.3,62.1,30.15,East,90,2.7,6.7,54,0.00,,,0.00,WUHU216HW,2013-05-14 16:11:00,
2013-05-14 12:16:00,80.5,62.2,30.14,ENE,68,2.7,6.7,54,0.00,,,0.00,WUHU216HW,2013-05-14 16:16:00,
2013-05-14 12:22:00,80.6,62.9,30.14,North,0,1.1,4.9,55,0.00,,,0.00,WUHU216HW,2013-05-14 16:22:00,
2013-05-14 12:27:00,81.0,62.7,30.14,ENE,68,2.5,3.8,54,0.00,,,0.00,WUHU216HW,2013-05-14 16:27:00,
2013-05-14 12:32:00,81.2,62.4,30.14,ENE,68,2.9,4.0,53,0.00,,,0.00,WUHU216HW,2013-05-14 16:32:00,
2013-05-14 12:37:00,81.5,63.7,30.14,NE,45,2.9,4.0,55,0.00,,,0.00,WUHU216HW,2013-05-14 16:37:00,
2013-05-14 12:42:00,81.7,62.8,30.14,NE,45,4.3,4.3,53,0.00,,,0.00,WUHU216HW,2013-05-14 16:42:00,
2013-05-14 12:47:00,81.9,63.6,30.14,West,270,3.4,4.3,54,0.00,,,0.00,WUHU216HW,2013-05-14 16:47:00,
2013-05-14 12:52:00,81.9,62.5,30.14,ENE,68,5.6,5.6,52,0.00,,,0.00,WUHU216HW,2013-05-14 16:52:00,
2013-05-14 12:57:00,82.1,63.7,30.14,North,0,2.5,7.2,54,0.00,,,0.00,WUHU216HW,2013-05-14 16:57:00,
2013-05-14 13:02:00,82.6,63.6,30.14,NW,315,1.1,7.2,53,0.00,,,0.00,WUHU216HW,2013-05-14 17:02:00,
2013-05-14 13:08:00,82.6,63.6,30.13,NNW,338,1.6,4.9,53,0.00,,,0.00,WUHU216HW,2013-05-14 17:08:00,
2013-05-14 13:13:00,83.0,63.6,30.13,North,0,4.0,4.0,52,0.00,,,0.00,WUHU216HW,2013-05-14 17:13:00,
2013-05-14 13:18:00,83.2,64.2,30.13,ESE,113,4.0,4.0,53,0.00,,,0.00,WUHU216HW,2013-05-14 17:18:00,
2013-05-14 13:23:00,83.9,64.5,30.13,NE,45,2.5,4.0,52,0.00,,,0.00,WUHU216HW,2013-05-14 17:23:00,
2013-05-14 13:28:00,83.7,64.3,30.13,NE,45,1.1,2.5,52,0.00,,,0.00,WUHU216HW,2013-05-14 17:28:00,
2013-05-14 13:33:00,83.3,63.4,30.13,ESE,113,2.5,6.9,51,0.00,,,0.00,WUHU216HW,2013-05-14 17:33:00,
2013-05-14 13:38:00,83.7,63.2,30.13,NNE,23,2.2,6.9,50,0.00,,,0.00,WUHU216HW,2013-05-14 17:38:00,
2013-05-14 13:43:00,84.1,62.9,30.12,North,0,1.1,4.7,49,0.00,,,0.00,WUHU216HW,2013-05-14 17:43:00,
2013-05-14 13:48:00,84.1,62.3,30.12,NW,315,1.3,3.4,48,0.00,,,0.00,WUHU216HW,2013-05-14 17:48:00,
2013-05-14 13:53:00,84.4,63.3,30.12,North,0,9.2,9.2,49,0.00,,,0.00,WUHU216HW,2013-05-14 17:53:00,
2013-05-14 13:59:00,84.6,63.5,30.12,NW,315,4.3,9.2,49,0.00,,,0.00,WUHU216HW,2013-05-14 17:59:00,
2013-05-14 14:04:00,84.8,62.3,30.12,NNW,338,3.1,4.5,47,0.00,,,0.00,WUHU216HW,2013-05-14 18:04:00,
2013-05-14 14:09:00,85.0,63.7,30.12,SSW,203,1.6,4.5,49,0.00,,,0.00,WUHU216HW,2013-05-14 18:09:00,
2013-05-14 14:14:00,85.3,64.1,30.11,North,0,6.9,6.9,49,0.00,,,0.00,WUHU216HW,2013-05-14 18:14:00,
2013-05-14 14:19:00,85.0,62.5,30.11,NNW,338,3.8,6.9,47,0.00,,,0.00,WUHU216HW,2013-05-14 18:19:00,
2013-05-14 14:24:00,84.8,62.3,30.11,NNW,338,4.7,5.6,47,0.00,,,0.00,WUHU216HW,2013-05-14 18:24:00,
2013-05-14 14:29:00,85.0,62.5,30.11,North,0,4.3,4.7,47,0.00,,,0.00,WUHU216HW,2013-05-14 18:29:00,
2013-05-14 14:34:00,85.3,61.6,30.11,North,0,6.0,6.3,45,0.00,,,0.00,WUHU216HW,2013-05-14 18:34:00,
2013-05-14 14:39:00,84.8,62.3,30.11,NNW,338,1.6,6.3,47,0.00,,,0.00,WUHU216HW,2013-05-14 18:39:00,
2013-05-14 14:45:00,85.0,62.5,30.11,NW,315,3.6,3.8,47,0.00,,,0.00,WUHU216HW,2013-05-14 18:45:00,
2013-05-14 14:50:00,85.3,64.1,30.10,NNW,338,2.9,5.8,49,0.00,,,0.00,WUHU216HW,2013-05-14 18:50:00,
2013-05-14 14:55:00,85.5,63.0,30.10,NNE,23,4.5,7.6,47,0.00,,,0.00,WUHU216HW,2013-05-14 18:55:00,
2013-05-14 15:00:00,85.3,60.9,30.10,NNW,338,4.7,7.6,44,0.00,,,0.00,WUHU216HW,2013-05-14 19:00:00,
2013-05-14 15:05:00,85.1,60.1,30.09,WNW,293,2.7,4.7,43,0.00,,,0.00,WUHU216HW,2013-05-14 19:05:00,
2013-05-14 15:10:00,85.3,62.8,30.09,NNW,338,3.4,5.1,47,0.00,,,0.00,WUHU216HW,2013-05-14 19:10:00,
2013-05-14 15:15:00,85.7,61.8,30.09,NNE,23,1.8,5.1,45,0.00,,,0.00,WUHU216HW,2013-05-14 19:15:00,
2013-05-14 15:21:00,85.3,62.8,30.09,SE,135,1.6,4.7,47,0.00,,,0.00,WUHU216HW,2013-05-14 19:21:00,
2013-05-14 15:26:00,85.5,61.8,30.09,NNE,23,3.1,4.7,45,0.00,,,0.00,WUHU216HW,2013-05-14 19:26:00,
2013-05-14 15:31:00,84.6,59.7,30.09,North,0,3.4,4.0,43,0.00,,,0.00,WUHU216HW,2013-05-14 19:31:00,
2013-05-14 15:36:00,84.1,60.4,30.09,NNW,338,3.4,4.0,45,0.00,,,0.00,WUHU216HW,2013-05-14 19:36:00,
2013-05-14 15:41:00,84.2,61.2,30.09,NE,45,0.7,3.4,46,0.00,,,0.00,WUHU216HW,2013-05-14 19:41:00,
2013-05-14 15:46:00,84.8,61.0,30.09,SE,135,2.0,5.6,45,0.00,,,0.00,WUHU216HW,2013-05-14 19:46:00,
2013-05-14 15:51:00,85.3,62.8,30.09,East,90,5.1,6.9,47,0.00,,,0.00,WUHU216HW,2013-05-14 19:51:00,
2013-05-14 15:56:00,85.9,62.0,30.09,ESE,113,1.1,6.9,45,0.00,,,0.00,WUHU216HW,2013-05-14 19:56:00,
2013-05-14 16:01:00,85.3,61.6,30.09,ESE,113,2.2,4.3,45,0.00,,,0.00,WUHU216HW,2013-05-14 20:01:00,
2013-05-14 16:06:00,85.0,61.8,30.08,NNE,23,1.3,3.1,46,0.00,,,0.00,WUHU216HW,2013-05-14 20:06:00,
2013-05-14 16:12:00,85.3,61.6,30.08,West,270,4.5,4.5,45,0.00,,,0.00,WUHU216HW,2013-05-14 20:12:00,
2013-05-14 16:17:00,85.0,59.9,30.08,ENE,68,3.1,6.5,43,0.00,,,0.00,WUHU216HW,2013-05-14 20:17:00,
2013-05-14 16:22:00,85.0,59.9,30.08,NNE,23,2.9,6.5,43,0.00,,,0.00,WUHU216HW,2013-05-14 20:22:00,
2013-05-14 16:27:00,84.8,59.8,30.08,North,0,2.5,5.4,43,0.00,,,0.00,WUHU216HW,2013-05-14 20:27:00,
2013-05-14 16:32:00,84.6,59.7,30.08,NNW,338,6.9,6.9,43,0.00,,,0.00,WUHU216HW,2013-05-14 20:32:00,
2013-05-14 16:37:00,84.6,59.7,30.07,NE,45,1.1,6.9,43,0.00,,,0.00,WUHU216HW,2013-05-14 20:37:00,
2013-05-14 16:42:00,84.6,58.4,30.07,ENE,68,2.5,4.0,41,0.00,,,0.00,WUHU216HW,2013-05-14 20:42:00,
2013-05-14 16:47:00,84.4,58.2,30.07,North,0,4.0,4.0,41,0.00,,,0.00,WUHU216HW,2013-05-14 20:47:00,
2013-05-14 16:52:00,84.2,58.7,30.07,North,0,5.1,5.4,42,0.00,,,0.00,WUHU216HW,2013-05-14 20:52:00,
2013-05-14 16:57:00,84.4,60.1,30.07,NNE,23,2.2,5.4,44,0.00,,,0.00,WUHU216HW,2013-05-14 20:57:00,
2013-05-14 17:02:00,84.8,59.1,30.07,ENE,68,4.0,4.0,42,0.00,,,0.00,WUHU216HW,2013-05-14 21:02:00,
2013-05-14 17:08:00,85.0,59.3,30.07,NNE,23,1.8,4.5,42,0.00,,,0.00,WUHU216HW,2013-05-14 21:08:00,
2013-05-14 17:13:00,85.0,58.1,30.07,NNE,23,4.7,4.7,40,0.00,,,0.00,WUHU216HW,2013-05-14 21:13:00,
2013-05-14 17:18:00,84.4,58.2,30.07,West,270,4.0,4.7,41,0.00,,,0.00,WUHU216HW,2013-05-14 21:18:00,
2013-05-14 17:23:00,84.6,58.4,30.07,NE,45,2.0,5.4,41,0.00,,,0.00,WUHU216HW,2013-05-14 21:23:00,
2013-05-14 17:28:00,84.2,58.1,30.07,South,180,2.5,5.4,41,0.00,,,0.00,WUHU216HW,2013-05-14 21:28:00,
2013-05-14 17:33:00,84.2,58.7,30.07,East,90,4.3,4.9,42,0.00,,,0.00,WUHU216HW,2013-05-14 21:33:00,
2013-05-14 17:38:00,84.1,57.9,30.07,ENE,68,2.5,4.9,41,0.00,,,0.00,WUHU216HW,2013-05-14 21:38:00,
2013-05-14 17:43:00,83.9,58.3,30.07,NNE,23,4.0,5.4,42,0.00,,,0.00,WUHU216HW,2013-05-14 21:43:00,
2013-05-14 17:48:00,83.7,58.1,30.07,NNE,23,5.1,5.4,42,0.00,,,0.00,WUHU216HW,2013-05-14 21:48:00,
2013-05-14 17:53:00,83.5,58.7,30.07,SE,135,5.4,5.4,43,0.00,,,0.00,WUHU216HW,2013-05-14 21:53:00,
2013-05-14 17:59:00,83.5,58.1,30.07,ENE,68,3.1,5.4,42,0.00,,,0.00,WUHU216HW,2013-05-14 21:59:00,
2013-05-14 18:04:00,83.5,58.1,30.07,ESE,113,5.6,5.6,42,0.00,,,0.00,WUHU216HW,2013-05-14 22:04:00,
2013-05-14 18:09:00,83.3,58.5,30.07,NE,45,1.8,5.6,43,0.00,,,0.00,WUHU216HW,2013-05-14 22:09:00,
2013-05-14 18:14:00,83.2,59.0,30.07,ENE,68,3.6,7.4,44,0.00,,,0.00,WUHU216HW,2013-05-14 22:14:00,
2013-05-14 18:19:00,83.9,59.6,30.07,ESE,113,1.8,7.4,44,0.00,,,0.00,WUHU216HW,2013-05-14 22:19:00,
2013-05-14 18:24:00,83.9,58.3,30.07,NNE,23,2.9,6.5,42,0.00,,,0.00,WUHU216HW,2013-05-14 22:24:00,
2013-05-14 18:29:00,83.5,58.7,30.07,NE,45,4.3,4.5,43,0.00,,,0.00,WUHU216HW,2013-05-14 22:29:00,
2013-05-14 18:34:00,83.5,59.2,30.07,East,90,3.4,4.9,44,0.00,,,0.00,WUHU216HW,2013-05-14 22:34:00,
2013-05-14 18:40:00,83.3,57.9,30.07,NE,45,3.4,7.8,42,0.00,,,0.00,WUHU216HW,2013-05-14 22:40:00,
2013-05-14 18:45:00,83.0,58.2,30.07,NW,315,0.7,7.8,43,0.00,,,0.00,WUHU216HW,2013-05-14 22:45:00,
2013-05-14 18:50:00,82.8,58.6,30.07,SE,135,1.1,5.1,44,0.00,,,0.00,WUHU216HW,2013-05-14 22:50:00,
2013-05-14 18:55:00,82.6,58.4,30.07,NE,45,2.5,5.1,44,0.00,,,0.00,WUHU216HW,2013-05-14 22:55:00,
2013-05-14 19:00:00,82.4,58.2,30.07,North,0,0.7,6.3,44,0.00,,,0.00,WUHU216HW,2013-05-14 23:00:00,
2013-05-14 19:05:00,82.3,58.1,30.07,SSE,158,2.5,6.3,44,0.00,,,0.00,WUHU216HW,2013-05-14 23:05:00,
2013-05-14 19:10:00,82.1,58.0,30.07,North,0,2.9,4.0,44,0.00,,,0.00,WUHU216HW,2013-05-14 23:10:00,
2013-05-14 19:15:00,81.9,57.2,30.07,ESE,113,3.8,3.8,43,0.00,,,0.00,WUHU216HW,2013-05-14 23:15:00,
2013-05-14 19:21:00,81.7,57.0,30.08,ENE,68,1.1,3.8,43,0.00,,,0.00,WUHU216HW,2013-05-14 23:21:00,
2013-05-14 19:26:00,81.4,57.2,30.07,NE,45,2.0,4.3,44,0.00,,,0.00,WUHU216HW,2013-05-14 23:26:00,
2013-05-14 19:31:00,81.4,57.2,30.07,ENE,68,1.1,4.3,44,0.00,,,0.00,WUHU216HW,2013-05-14 23:31:00,
2013-05-14 19:36:00,81.0,57.0,30.07,ESE,113,2.2,5.4,44,0.00,,,0.00,WUHU216HW,2013-05-14 23:36:00,
2013-05-14 19:41:00,81.0,57.6,30.08,East,90,3.4,5.4,45,0.00,,,0.00,WUHU216HW,2013-05-14 23:41:00,
2013-05-14 19:46:00,81.0,57.6,30.08,ESE,113,2.5,4.0,45,0.00,,,0.00,WUHU216HW,2013-05-14 23:46:00,
2013-05-14 19:51:00,80.6,57.9,30.08,East,90,1.6,2.7,46,0.00,,,0.00,WUHU216HW,2013-05-14 23:51:00,
2013-05-14 19:56:00,80.5,57.7,30.08,NE,45,1.1,2.7,46,0.00,,,0.00,WUHU216HW,2013-05-14 23:56:00,
2013-05-14 20:02:00,80.3,58.1,30.08,East,90,1.6,2.5,47,0.00,,,0.00,WUHU216HW,2013-05-15 00:02:00,
2013-05-14 20:07:00,80.1,58.0,30.08,ESE,113,1.8,2.5,47,0.00,,,0.00,WUHU216HW,2013-05-15 00:07:00,
2013-05-14 20:12:00,79.9,57.8,30.09,East,90,0.9,2.5,47,0.00,,,0.00,WUHU216HW,2013-05-15 00:12:00,
2013-05-14 20:17:00,79.7,58.2,30.09,NE,45,0.9,3.4,48,0.00,,,0.00,WUHU216HW,2013-05-15 00:17:00,
2013-05-14 20:22:00,79.6,58.2,30.09,SSE,158,1.6,3.4,48,0.00,,,0.00,WUHU216HW,2013-05-15 00:22:00,
2013-05-14 20:27:00,79.6,58.7,30.09,ENE,68,1.1,1.8,49,0.00,,,0.00,WUHU216HW,2013-05-15 00:27:00,
2013-05-14 20:32:00,79.2,58.4,30.09,ENE,68,1.1,1.8,49,0.00,,,0.00,WUHU216HW,2013-05-15 00:32:00,
2013-05-14 20:37:00,79.0,58.2,30.09,ENE,68,0.2,2.0,49,0.00,,,0.00,WUHU216HW,2013-05-15 00:37:00,
2013-05-14 20:43:00,78.8,58.1,30.09,NNE,23,1.3,2.2,49,0.00,,,0.00,WUHU216HW,2013-05-15 00:43:00,
2013-05-14 20:48:00,78.7,58.5,30.10,ESE,113,1.6,2.2,50,0.00,,,0.00,WUHU216HW,2013-05-15 00:48:00,
2013-05-14 20:53:00,78.7,58.5,30.10,ESE,113,0.4,2.7,50,0.00,,,0.00,WUHU216HW,2013-05-15 00:53:00,
2013-05-14 20:59:00,78.5,58.3,30.10,ESE,113,1.3,2.7,50,0.00,,,0.00,WUHU216HW,2013-05-15 00:59:00,
2013-05-14 21:04:00,78.1,58.6,30.11,East,90,0.0,1.8,51,0.00,,,0.00,WUHU216HW,2013-05-15 01:04:00,
2013-05-14 21:09:00,78.1,58.6,30.11,SSE,158,1.8,1.8,51,0.00,,,0.00,WUHU216HW,2013-05-15 01:09:00,
2013-05-14 21:14:00,77.9,58.4,30.11,East,90,1.1,3.4,51,0.00,,,0.00,WUHU216HW,2013-05-15 01:14:00,
2013-05-14 21:19:00,77.6,58.6,30.11,ESE,113,2.5,3.4,52,0.00,,,0.00,WUHU216HW,2013-05-15 01:19:00,
2013-05-14 21:24:00,77.4,58.4,30.12,ESE,113,2.5,4.7,52,0.00,,,0.00,WUHU216HW,2013-05-15 01:24:00,
2013-05-14 21:29:00,77.4,59.0,30.12,ESE,113,2.0,4.7,53,0.00,,,0.00,WUHU216HW,2013-05-15 01:29:00,
2013-05-14 21:35:00,77.2,58.8,30.12,SE,135,1.3,2.9,53,0.00,,,0.00,WUHU216HW,2013-05-15 01:35:00,
2013-05-14 21:43:00,77.0,59.0,30.12,East,90,1.8,1.8,54,0.00,,,0.00,WUHU216HW,2013-05-15 01:43:00,
2013-05-14 21:48:00,76.5,59.1,30.12,SE,135,1.3,3.8,55,0.00,,,0.00,WUHU216HW,2013-05-15 01:48:00,
2013-05-14 21:53:00,76.3,59.0,30.13,East,90,3.4,3.8,55,0.00,,,0.00,WUHU216HW,2013-05-15 01:53:00,
2013-05-14 21:58:00,76.1,59.3,30.13,ENE,68,2.5,4.5,56,0.00,,,0.00,WUHU216HW,2013-05-15 01:58:00,
2013-05-14 22:03:00,76.1,59.3,30.13,ESE,113,0.9,4.5,56,0.00,,,0.00,WUHU216HW,2013-05-15 02:03:00,
2013-05-14 22:08:00,76.0,59.6,30.13,ENE,68,0.7,3.6,57,0.00,,,0.00,WUHU216HW,2013-05-15 02:08:00,
2013-05-14 22:13:00,75.8,59.5,30.13,ESE,113,0.9,3.1,57,0.00,,,0.00,WUHU216HW,2013-05-15 02:13:00,
2013-05-14 22:18:00,75.8,59.5,30.14,ESE,113,0.4,2.7,57,0.00,,,0.00,WUHU216HW,2013-05-15 02:18:00,
2013-05-14 22:24:00,75.6,59.3,30.14,ESE,113,1.3,2.7,57,0.00,,,0.00,WUHU216HW,2013-05-15 02:24:00,
2013-05-14 22:29:00,75.4,59.7,30.14,East,90,1.8,2.7,58,0.00,,,0.00,WUHU216HW,2013-05-15 02:29:00,
2013-05-14 22:34:00,75.2,59.5,30.14,ENE,68,2.5,2.9,58,0.00,,,0.00,WUHU216HW,2013-05-15 02:34:00,
2013-05-14 22:39:00,75.1,59.8,30.14,ESE,113,1.1,2.9,59,0.00,,,0.00,WUHU216HW,2013-05-15 02:39:00,
2013-05-14 22:44:00,74.7,59.4,30.14,NNE,23,1.8,3.4,59,0.00,,,0.00,WUHU216HW,2013-05-15 02:44:00,
2013-05-14 22:49:00,74.5,59.8,30.14,NNE,23,1.3,3.4,60,0.00,,,0.00,WUHU216HW,2013-05-15 02:49:00,
2013-05-14 22:54:00,74.5,59.8,30.15,East,90,0.9,2.7,60,0.00,,,0.00,WUHU216HW,2013-05-15 02:54:00,
2013-05-14 22:59:00,74.3,59.6,30.15,NE,45,1.8,2.7,60,0.00,,,0.00,WUHU216HW,2013-05-15 02:59:00,
2013-05-14 23:05:00,74.0,59.2,30.15,ENE,68,1.8,2.2,60,0.00,,,0.00,WUHU216HW,2013-05-15 03:05:00,
2013-05-14 23:10:00,73.8,59.5,30.15,NE,45,1.8,1.8,61,0.00,,,0.00,WUHU216HW,2013-05-15 03:10:00,
2013-05-14 23:15:00,73.6,59.3,30.15,East,90,3.4,3.4,61,0.00,,,0.00,WUHU216HW,2013-05-15 03:15:00,
2013-05-14 23:20:00,73.8,59.5,30.15,ESE,113,2.9,3.4,61,0.00,,,0.00,WUHU216HW,2013-05-15 03:20:00,
2013-05-14 23:25:00,73.6,59.8,30.15,SSE,158,1.8,3.6,62,0.00,,,0.00,WUHU216HW,2013-05-15 03:25:00,
2013-05-14 23:30:00,73.6,59.8,30.15,ENE,68,1.1,3.6,62,0.00,,,0.00,WUHU216HW,2013-05-15 03:30:00,
2013-05-14 23:35:00,73.4,59.6,30.15,ESE,113,1.1,3.6,62,0.00,,,0.00,WUHU216HW,2013-05-15 03:35:00,
2013-05-14 23:40:00,73.3,59.4,30.15,NNE,23,2.2,3.6,62,0.00,,,0.00,WUHU216HW,2013-05-15 03:40:00,
2013-05-14 23:46:00,73.1,59.2,30.15,ESE,113,1.8,3.1,62,0.00,,,0.00,WUHU216HW,2013-05-15 03:46:00,
2013-05-14 23:51:00,73.1,59.2,30.15,NNW,338,1.1,4.0,62,0.00,,,0.00,WUHU216HW,2013-05-15 03:51:00,
2013-05-14 23:56:00,73.1,59.7,30.15,NNW,338,0.2,4.0,63,0.00,,,0.00,WUHU216HW,2013-05-15 03:56:00,